Deer Lake, Canada

8:45 PM NDT on June 24, 2017 (GMT -0230)
Deer Lake

Weather History for CYDF - November, 2013

Change the Weather History Date:

Saturday, November 2, 2013

  Actual Average Record
Temperature  
Mean Temperature 52 °F -  
Max Temperature 63 °F 38 °F 63 °F (2013)
Min Temperature 41 °F 26 °F 21 °F (2002)
Degree Days  
Heating Degree Days 13    
Growing Degree Days 2 (Base 50)    
Moisture  
Dew Point 44 °F    
Average Humidity 72    
Maximum Humidity 94    
Minimum Humidity 40    
Precipitation  
Precipitation 0.08 in 0.14 in - ()
Sea Level Pressure  
Sea Level Pressure 29.39 in    
Wind  
Wind Speed 17 mph ()    
Max Wind Speed 28 mph    
Max Gust Speed 58 mph    
Visibility 14.6 miles    
Events Rain    
Averages and records for this station are not official NWS values.
T = Trace of Precipitation, MM = Missing Value Source: Averaged Metar Reports

Daily Weather History Graph

Daily Weather History Graph

Search for Another Location

Airport or City:

Trip Planner

Search our weather history database for the weather conditions in past years. The results will help you decide how hot, cold, wet, or windy it might be!

Date:

Astronomy

Nov. 02, 2013 Rise Set
Actual Time 8:09 AM NDT 5:56 PM NDT
Civil Twilight 7:35 AM NDT 6:29 PM NDT
Nautical Twilight 6:58 AM NDT 7:07 PM NDT
Astronomical Twilight 6:21 AM NDT 7:44 PM NDT
Moon 6:56 AM NDT (11/2) 5:26 PM NDT (11/2)
Length of Visible Light 10h 53m
Length of Day
9h 47m
Waning Crescent, 1% of the Moon is Illuminated
Nov 2
Waning Crescent
Nov 3
New
Nov 10
First Quarter
Nov 17
Full
Nov 25
Last Quarter

Hourly Weather History & Observations

Time (NDT) Temp. Windchill Dew Point Humidity Pressure Visibility Wind Dir Wind Speed Gust Speed Precip Events Conditions
12:30 AM 59.0 °F - 57.2 °F 94% 29.26 in 10.0 mi SSW 17.3 mph 26.5 mph N/A Rain Light Rain
1:30 AM 60.8 °F - 57.2 °F 88% 29.26 in 12.0 mi SSW 19.6 mph - N/A Rain Light Rain
2:30 AM 60.8 °F - 57.2 °F 88% 29.23 in 15.0 mi SSW 27.6 mph - N/A Rain Light Rain
3:30 AM 63 °F - 56 °F 70% 29.21 in 15 mi SW 24.2 mph - - Rain Light Rain
3:30 AM 62.6 °F - 55.4 °F 77% 29.21 in 15.0 mi SW 23.0 mph 33.4 mph N/A Rain Light Rain
4:30 AM 60.8 °F - 55.4 °F 82% 29.21 in 12.0 mi SW 20.7 mph 38.0 mph N/A Rain Light Rain
5:30 AM 60.8 °F - 53.6 °F 77% 29.20 in 15.0 mi SW 26.5 mph 42.6 mph N/A Rain Light Rain
6:30 AM 59.0 °F - 51.8 °F 77% 29.20 in 15.0 mi SW 23.0 mph 32.2 mph N/A Rain Light Rain
7:30 AM 57.2 °F - 50.0 °F 77% 29.21 in 15.0 mi SW 25.3 mph 33.4 mph N/A Rain Light Rain
7:57 AM 57.2 °F - 48.2 °F 72% 29.24 in 15.0 mi SW 25.3 mph 35.7 mph N/A   Overcast
8:30 AM 57.2 °F - 44.6 °F 63% 29.25 in 15.0 mi SW 26.5 mph 57.5 mph N/A   Mostly Cloudy
9:30 AM 54 °F - 44 °F 60% 29.32 in 15 mi SW 26.5 mph - -   Partly Cloudy
9:30 AM 53.6 °F - 44.6 °F 72% 29.32 in 15.0 mi SW 23.0 mph 42.6 mph N/A   Mostly Cloudy
10:30 AM 51.8 °F - 41.0 °F 67% 29.37 in 15.0 mi SW 19.6 mph 39.1 mph N/A   Mostly Cloudy
11:30 AM 51.8 °F - 39.2 °F 62% 29.42 in 15.0 mi WSW 15.0 mph 35.7 mph N/A   Mostly Cloudy
12:30 PM 50.0 °F - 39.2 °F 66% 29.46 in 15.0 mi WSW 18.4 mph 34.5 mph N/A   Mostly Cloudy
1:30 PM 51.8 °F - 37.4 °F 58% 29.47 in 15.0 mi WSW 23.0 mph 35.7 mph N/A   Scattered Clouds
2:30 PM 50.0 °F - 35.6 °F 58% 29.49 in 15.0 mi WSW 20.7 mph 29.9 mph N/A   Scattered Clouds
3:30 PM 51 °F - 34 °F 40% 29.51 in 15 mi WSW 20.7 mph - -   Scattered Clouds
3:30 PM 51.8 °F - 33.8 °F 50% 29.51 in 15.0 mi WSW 20.7 mph 32.2 mph N/A   Partly Cloudy
4:30 PM 48.2 °F - 37.4 °F 66% 29.52 in 15.0 mi West 13.8 mph 21.9 mph N/A   Partly Cloudy
5:30 PM 46.4 °F 41.5 °F 37.4 °F 71% 29.55 in 15.0 mi West 10.4 mph - N/A   Scattered Clouds
6:30 PM 46.4 °F - 39.2 °F 76% 29.55 in 15.0 mi SW 2.3 mph - N/A   Mostly Cloudy
7:30 PM 46.4 °F 43.5 °F 39.2 °F 76% 29.55 in 15.0 mi SW 5.8 mph - N/A   Overcast
8:30 PM 44.6 °F 41.4 °F 39.2 °F 81% 29.57 in 15.0 mi West 5.8 mph - N/A   Mostly Cloudy
9:30 PM 41 °F - 36 °F 78% 29.58 in 15 mi WNW 1.2 mph - -   Scattered Clouds
9:30 PM 41.0 °F - 37.4 °F 87% 29.57 in 15.0 mi Calm Calm - N/A   Mostly Cloudy
10:30 PM 42.8 °F 40.1 °F 37.4 °F 81% 29.60 in 15.0 mi SSW 4.6 mph - N/A   Mostly Cloudy
11:30 PM 42.8 °F 39.3 °F 37.4 °F 81% 29.61 in 15.0 mi WSW 5.8 mph - N/A   Mostly Cloudy